Regional Weather Roundup
Issued by NWS

Home | Current Version | Previous Version | Graphics & Text | Print | Product List | Glossary On
Versions: 1 2 3 4 5 6 7 8 9 10 11 12 13 14 15 16 17 18 19 20 21 22 23 24 25 26 27
000
ASUS45 KBOU 222307
RWRCO

WEATHER ROUNDUP FOR COLORADO
NATIONAL WEATHER SERVICE DENVER/BOULDER CO
500 PM MDT FRI JUL 22 2016

NOTE: "FAIR" INDICATES FEW OR NO CLOUDS BELOW 12000 FEET WITH NO
SIGNIFICANT WEATHER AND/OR OBSTRUCTIONS TO VISIBILITY.

COZ001>005-013-030-031-230000-
...NORTHWEST COLORADO...

CITY           SKY/WX    TMP DP  RH WIND       PRES   REMARKS
CRAIG          FAIR      85  43  22 S14       30.23F
HAYDEN         FAIR      84  39  20 SW10      30.27F
MEEKER         FAIR      78  54  43 S10       30.29S
MOUNT WERNER   NOT AVBL
STEAMBOAT SPGS FAIR      85  43  22 S6        30.28F
WALDEN         FAIR      77  41  27 NW9       30.40S
$$

COZ006>008-011-230000-
...WEST CENTRAL VALLEYS...

CITY           SKY/WX    TMP DP  RH WIND       PRES   REMARKS
GRAND JUNCTION FAIR      95  47  19 SE12G22   30.13F
MONTROSE       FAIR      85  48  27 E16       30.27F
EAGLE          PTSUNNY   84  46  26 SW18G26   30.30S
RIFLE          FAIR      77  51  40 NW28G43   30.25R
DELTA          FAIR      90  48  23 S8        30.21F
NUCLA          FAIR      82  43  24 CALM      30.29F
$$

COZ017>023-064>068-230000-
...SOUTHWEST COLORADO...

CITY           SKY/WX    TMP DP  RH WIND       PRES   REMARKS
DURANGO        FAIR      87  47  24 VRB7      30.28F
CORTEZ         FAIR      90  51  26 MISG      30.23F
PAGOSA SPRINGS FAIR      84  38  19 W7        30.38F
TELLURIDE      PTSUNNY   69  49  48 CALM      30.55F
WOLF CREEK PAS FAIR      63  39  42 SW16G26   30.76F
$$

COZ009-010-012-014-032>034-037-058>063-230000-
...CENTRAL COLORADO...

CITY           SKY/WX    TMP DP  RH WIND       PRES   REMARKS
ASPEN          FAIR      72  45  37 SE16G29   30.44R
BUENA VISTA    FAIR      68  51  53 NW10      30.45F
COPPER MTN     CLOUDY    61  41  48 S8        30.77S
BERTHOUD PASS  FAIR      55  43  62 MISG      30.79S THUNDER
COTTONWOOD PAS FAIR      64  45  48 W15G26    30.60F
GUNNISON       PTSUNNY   68  52  56 N6        30.50S
KREMMLING      FAIR      77  43  29 CALM      30.36F
LEADVILLE      LGT RAIN  62  42  47 S21G26    30.59R
MONARCH PASS   PTSUNNY   55  39  54 MISG      30.88S
SALIDA         CLOUDY    77  49  37 NW10G18   30.47R
SUNLIGHT       FAIR      68  50  52 CALM      30.70R
WILKERSON PASS FAIR      63  39  42 W7        30.71S
$$

COZ069>075-230000-
...SAN LUIS VALLEY/SANGRE DE CRISTO MOUNTAINS...

CITY           SKY/WX    TMP DP  RH WIND       PRES   REMARKS
ALAMOSA        FAIR      84  49  29 N23G29    30.33F
LA VETA PASS   FAIR      73  36  25 S5        30.58F
SAGUACHE       FAIR      70  48  46 N16G22    30.43S
$$

COZ035-036-038>040-230000-
...NORTHERN COLORADO FRONT RANGE...

CITY           SKY/WX    TMP DP  RH WIND       PRES   REMARKS
DENVER INTL AP PTSUNNY   95  46  18 W8        30.12F
DMNS CITY PARK   N/A     92  46  20 S3G9      30.12S
AURORA         PTSUNNY   91  51  24 SW6       30.16F
FRONT RANGE AP PTSUNNY   93  46  20 CALM      30.14F
ERIE MUNI ARPT FAIR      96  39  13 S6        30.09F
BOULDER MUN AP FAIR      97  45  16 E7        30.10F
CENTENNIAL     PTSUNNY   86  47  25 S6        30.18F
BROOMFIELD     PTSUNNY   91  45  19 SE3       30.15F
LONGMONT       FAIR      99  44  15 SE3       30.10F
$$

COZ041-046-047-076>085-087-088-230000-
...PIKES PEAK/PALMER DIVIDE AND SOUTHERN FOOTHILLS...

CITY           SKY/WX    TMP DP  RH WIND       PRES   REMARKS
COLO. SPRINGS  PTSUNNY   78  57  48 NE12G21   30.24R THUNDER
A. F. ACADEMY  MOSUNNY   73  55  53 N12       30.25S
SCHRIEVER AFB  NOT AVBL
ELLICOTT       PTSUNNY    1 N/A N/A NW38G46   30.20R THUNDER WCI -26
FALCON         TSTM      71  53  52 SE7       30.33R
FORT CARSON    NOT AVBL
LIMON          FAIR      92  46  20 SE7       30.11F
MONUMENT HILL  TSTM      68  50  52 S9        30.33F
TRINIDAD       NOT AVBL
$$

COZ042>045-048>051-090-091-230000-
...NORTHEAST COLORADO...

CITY           SKY/WX    TMP DP  RH WIND       PRES   REMARKS
GREELEY ARPT   FAIR      99  48  18 S6        30.07F
AKRON          FAIR      94  57  28 SE14G20   30.07F
BURLINGTON     FAIR      99  50  19 SE16      30.02F
WRAY           FAIR     100  52  19 S12       29.99F
STERLING       FAIR      97  61  30 S9        30.00F
HOLYOKE        FAIR      99  68  36 W16       30.00F
FORT MORGAN    FAIR      95  47  19 S3        30.05F
$$

COZ086-089-092>099-230000-
...SOUTHEAST COLORADO...

CITY           SKY/WX    TMP DP  RH WIND       PRES   REMARKS
PUEBLO         LGT RAIN  91  54  28 SE8G32    30.05R
LA JUNTA       FAIR     103  44  13 VRB3      30.00F
LAMAR          FAIR     103  52  18 S10G16    29.95F
SPRINGFIELD      N/A     95  58  28 E12       30.05F
$$




USA.gov is the U.S. government's official web portal to all federal, state and local government web resources and services.